Precipitable_Water
0.97 0.94 0.91 0.88 0.87 0.84 0.86 0.87 0.86 0.86 0.81 0.75 0.72 0.72 0.72 0.75 0.76 0.76 0.74 0.72 0.77 0.77 0.79 0.77 0.79 0.82 0.83 0.84 0.85 0.87 0.89 0.88 0.88 0.85 0.82 0.80 0.80 0.76 0.75 0.73 0.69 0.67 0.65 0.63 0.61 0.61 0.58 0.55 0.55 0.56 0.58 0.56 0.56 0.57 0.57 0.55 0.53 0.50 0.49 0.47 0.45 0.48 0.46 0.42 0.37 0.35 0.36 0.39 0.37 0.36 0.38 0.40 0.36 0.38 0.38 0.40 0.42 0.44 0.45 0.47 0.47 0.47 0.47 0.48 0.48
0.96 0.95 0.94 0.93 0.91 0.90 0.89 0.90 0.89 0.86 0.80 0.76 0.77 0.82 0.78 0.73 0.74 0.76 0.75 0.77 0.81 0.81 0.84 0.86 0.87 0.88 0.89 0.90 0.92 0.96 0.98 0.99 0.99 0.98 0.96 0.94 0.93 0.93 0.88 0.83 0.79 0.74 0.72 0.68 0.67 0.66 0.64 0.60 0.59 0.58 0.58 0.57 0.57 0.56 0.57 0.57 0.56 0.53 0.51 0.48 0.46 0.46 0.49 0.44 0.43 0.41 0.39 0.46 0.46 0.49 0.48 0.51 0.44 0.46 0.45 0.45 0.46 0.48 0.47 0.49 0.50 0.49 0.49 0.49 0.49
0.98 0.98 0.96 0.94 0.93 0.94 0.95 0.92 0.89 0.86 0.80 0.78 0.81 0.85 0.83 0.78 0.78 0.77 0.77 0.78 0.83 0.87 0.89 0.93 0.91 0.90 0.91 0.94 0.95 0.98 1.00 1.01 1.03 1.03 1.02 1.01 1.00 1.00 0.99 0.95 0.90 0.87 0.84 0.81 0.77 0.75 0.70 0.67 0.66 0.66 0.66 0.62 0.61 0.60 0.61 0.60 0.59 0.57 0.55 0.53 0.51 0.52 0.53 0.53 0.50 0.48 0.48 0.49 0.54 0.52 0.53 0.55 0.53 0.51 0.53 0.53 0.52 0.51 0.50 0.50 0.50 0.51 0.51 0.52 0.51
0.98 0.98 0.97 0.95 0.95 0.94 0.91 0.91 0.90 0.88 0.82 0.78 0.82 0.87 0.88 0.86 0.85 0.83 0.82 0.80 0.80 0.88 0.93 0.95 0.95 0.93 0.93 0.95 0.98 0.99 1.01 1.04 1.05 1.04 1.02 1.01 1.00 1.01 1.03 1.01 0.99 0.96 0.96 0.98 0.96 0.91 0.85 0.80 0.77 0.76 0.75 0.73 0.72 0.73 0.73 0.70 0.66 0.64 0.61 0.59 0.61 0.63 0.67 0.69 0.69 0.64 0.61 0.58 0.61 0.59 0.61 0.61 0.60 0.61 0.62 0.62 0.61 0.59 0.58 0.59 0.59 0.57 0.57 0.56 0.55
0.97 0.97 0.97 0.96 0.97 0.96 0.94 0.93 0.92 0.91 0.88 0.81 0.81 0.88 0.91 0.92 0.91 0.91 0.91 0.88 0.87 0.90 0.94 0.97 0.96 0.96 0.94 0.94 0.96 0.99 1.03 1.05 1.03 1.02 1.03 1.03 1.03 1.02 1.02 1.02 1.02 1.01 1.01 1.00 0.99 0.98 0.97 0.94 0.91 0.86 0.84 0.80 0.80 0.81 0.82 0.80 0.76 0.75 0.73 0.72 0.73 0.75 0.75 0.75 0.73 0.73 0.69 0.66 0.65 0.67 0.68 0.66 0.66 0.67 0.66 0.63 0.64 0.65 0.65 0.64 0.63 0.62 0.63 0.63 0.61
0.96 0.95 0.95 0.94 0.95 0.95 0.96 0.96 0.97 0.95 0.95 0.89 0.83 0.86 0.91 0.91 0.90 0.90 0.90 0.87 0.89 0.93 0.94 0.94 0.94 0.93 0.92 0.92 0.96 0.99 1.02 1.04 1.02 1.01 1.02 1.05 1.06 1.05 1.02 1.01 1.01 0.99 0.99 1.00 1.00 0.99 0.97 0.96 0.98 0.96 0.94 0.90 0.88 0.88 0.87 0.84 0.83 0.80 0.77 0.75 0.75 0.78 0.78 0.79 0.78 0.77 0.74 0.70 0.68 0.66 0.67 0.64 0.63 0.63 0.64 0.64 0.61 0.59 0.61 0.64 0.67 0.68 0.66 0.64 0.64
0.95 0.94 0.93 0.92 0.92 0.93 0.95 0.96 0.97 0.93 0.94 0.94 0.92 0.89 0.91 0.93 0.92 0.91 0.93 0.90 0.87 0.85 0.88 0.89 0.93 0.93 0.95 0.97 0.98 1.00 1.01 1.02 1.01 1.01 1.03 1.03 1.02 1.00 0.99 0.98 0.96 0.96 0.98 1.00 1.01 1.01 1.00 0.98 0.97 0.97 0.96 0.95 0.92 0.90 0.88 0.86 0.83 0.80 0.77 0.75 0.74 0.75 0.76 0.76 0.76 0.76 0.74 0.71 0.71 0.70 0.68 0.68 0.67 0.62 0.63 0.64 0.63 0.60 0.55 0.53 0.52 0.57 0.61 0.62 0.61
0.93 0.92 0.92 0.90 0.90 0.91 0.93 0.96 0.98 0.98 0.98 0.97 0.95 0.92 0.90 0.91 0.92 0.94 0.95 0.93 0.92 0.90 0.89 0.88 0.91 0.95 0.96 0.96 0.99 1.02 1.00 1.00 1.02 1.05 1.06 1.03 1.01 1.01 1.00 0.98 0.97 0.99 1.01 1.01 1.01 0.99 0.96 0.94 0.93 0.93 0.94 0.95 0.94 0.94 0.92 0.87 0.86 0.83 0.82 0.79 0.76 0.74 0.75 0.76 0.76 0.75 0.72 0.71 0.69 0.68 0.69 0.68 0.69 0.68 0.68 0.67 0.62 0.60 0.58 0.54 0.49 0.48 0.47 0.49 0.51
0.89 0.89 0.90 0.89 0.90 0.91 0.92 0.94 0.96 0.96 0.97 0.95 0.94 0.92 0.90 0.91 0.94 0.95 0.96 0.95 0.95 0.94 0.93 0.94 0.93 0.95 0.97 0.99 1.01 1.04 1.03 1.02 1.02 1.03 1.03 1.03 1.02 1.00 1.01 1.00 0.99 0.98 0.99 1.01 1.01 1.02 0.99 0.94 0.91 0.90 0.92 0.94 0.95 0.95 0.96 0.96 0.92 0.87 0.87 0.85 0.81 0.78 0.75 0.75 0.74 0.74 0.74 0.74 0.72 0.72 0.68 0.66 0.65 0.64 0.63 0.61 0.59 0.57 0.59 0.59 0.54 0.53 0.49 0.44 0.44
0.88 0.89 0.89 0.90 0.92 0.92 0.92 0.93 0.93 0.94 0.92 0.91 0.92 0.91 0.91 0.92 0.93 0.92 0.92 0.91 0.90 0.91 0.94 0.96 0.97 0.96 0.95 0.97 0.98 0.99 0.99 1.01 1.02 1.01 1.01 0.99 0.98 0.96 0.95 0.96 0.97 0.98 0.97 0.97 0.98 1.00 1.01 1.02 0.98 0.95 0.94 0.95 0.94 0.96 0.97 0.95 0.95 0.93 0.90 0.88 0.84 0.80 0.78 0.76 0.75 0.75 0.74 0.71 0.69 0.67 0.65 0.63 0.63 0.63 0.61 0.61 0.62 0.62 0.60 0.58 0.52 0.52 0.50 0.45 0.43
0.84 0.86 0.87 0.90 0.92 0.93 0.91 0.90 0.91 0.91 0.92 0.92 0.92 0.91 0.90 0.91 0.91 0.91 0.91 0.91 0.92 0.94 0.93 0.91 0.93 0.96 0.96 0.95 0.95 0.95 0.95 0.96 0.93 0.91 0.90 0.87 0.85 0.83 0.81 0.80 0.82 0.83 0.84 0.85 0.87 0.91 0.94 0.95 0.94 0.95 0.97 0.98 0.97 0.98 1.02 1.02 0.99 0.96 0.93 0.90 0.86 0.81 0.77 0.75 0.74 0.75 0.72 0.70 0.69 0.68 0.66 0.64 0.64 0.63 0.61 0.58 0.58 0.54 0.53 0.53 0.51 0.48 0.44 0.39 0.34
0.78 0.80 0.84 0.87 0.89 0.90 0.90 0.89 0.88 0.89 0.90 0.90 0.91 0.91 0.91 0.91 0.92 0.92 0.92 0.93 0.93 0.90 0.85 0.85 0.87 0.89 0.90 0.89 0.87 0.85 0.83 0.80 0.78 0.76 0.75 0.75 0.74 0.74 0.73 0.71 0.71 0.73 0.73 0.73 0.75 0.76 0.75 0.73 0.76 0.81 0.84 0.88 0.90 0.89 0.89 0.92 0.94 0.91 0.87 0.82 0.80 0.79 0.79 0.76 0.72 0.69 0.71 0.71 0.68 0.67 0.65 0.62 0.61 0.60 0.58 0.56 0.53 0.51 0.50 0.49 0.48 0.45 0.40 0.36 0.34
0.63 0.68 0.73 0.77 0.80 0.83 0.86 0.86 0.84 0.83 0.84 0.86 0.88 0.89 0.89 0.88 0.88 0.88 0.87 0.87 0.83 0.77 0.75 0.75 0.75 0.75 0.74 0.71 0.69 0.69 0.68 0.67 0.65 0.63 0.61 0.60 0.60 0.61 0.63 0.66 0.67 0.67 0.67 0.67 0.66 0.66 0.67 0.66 0.64 0.66 0.68 0.69 0.72 0.75 0.78 0.79 0.79 0.79 0.76 0.73 0.70 0.70 0.71 0.70 0.70 0.73 0.73 0.69 0.64 0.61 0.60 0.60 0.58 0.58 0.57 0.54 0.53 0.49 0.50 0.48 0.47 0.43 0.40 0.35 0.33
0.56 0.57 0.59 0.60 0.61 0.63 0.63 0.64 0.64 0.66 0.70 0.73 0.76 0.77 0.78 0.77 0.78 0.78 0.76 0.73 0.67 0.64 0.63 0.62 0.62 0.62 0.61 0.60 0.59 0.60 0.59 0.58 0.56 0.55 0.53 0.52 0.52 0.53 0.55 0.56 0.59 0.62 0.64 0.64 0.64 0.64 0.65 0.64 0.61 0.59 0.60 0.60 0.62 0.64 0.65 0.65 0.65 0.65 0.66 0.65 0.65 0.65 0.65 0.66 0.67 0.67 0.66 0.64 0.62 0.61 0.63 0.61 0.58 0.58 0.57 0.56 0.52 0.49 0.48 0.45 0.44 0.40 0.37 0.33 0.33
0.54 0.53 0.53 0.54 0.54 0.54 0.54 0.54 0.54 0.57 0.59 0.61 0.61 0.60 0.60 0.60 0.61 0.63 0.63 0.61 0.59 0.57 0.56 0.55 0.54 0.53 0.52 0.51 0.49 0.48 0.47 0.45 0.45 0.45 0.46 0.46 0.47 0.47 0.49 0.51 0.52 0.55 0.58 0.60 0.62 0.63 0.64 0.65 0.63 0.59 0.57 0.57 0.58 0.58 0.58 0.58 0.59 0.59 0.59 0.59 0.60 0.60 0.61 0.63 0.63 0.63 0.62 0.63 0.63 0.62 0.60 0.59 0.57 0.57 0.56 0.54 0.51 0.50 0.48 0.43 0.42 0.40 0.37 0.37 0.35
0.56 0.56 0.56 0.56 0.56 0.57 0.57 0.56 0.56 0.56 0.56 0.55 0.54 0.54 0.54 0.54 0.54 0.56 0.55 0.55 0.55 0.54 0.53 0.52 0.50 0.48 0.48 0.47 0.47 0.45 0.47 0.47 0.48 0.48 0.48 0.48 0.48 0.48 0.49 0.49 0.49 0.51 0.53 0.56 0.58 0.60 0.62 0.63 0.62 0.60 0.58 0.56 0.56 0.57 0.58 0.58 0.56 0.55 0.54 0.55 0.56 0.57 0.57 0.59 0.60 0.60 0.61 0.61 0.60 0.58 0.57 0.57 0.55 0.53 0.51 0.50 0.49 0.47 0.45 0.45 0.43 0.40 0.36 0.30 0.27
0.56 0.55 0.57 0.57 0.58 0.59 0.61 0.60 0.59 0.59 0.59 0.58 0.57 0.56 0.55 0.55 0.55 0.56 0.54 0.54 0.53 0.52 0.51 0.50 0.50 0.50 0.49 0.50 0.49 0.48 0.50 0.51 0.50 0.50 0.49 0.49 0.49 0.49 0.48 0.48 0.48 0.48 0.50 0.54 0.57 0.59 0.60 0.61 0.61 0.59 0.57 0.54 0.54 0.54 0.56 0.56 0.54 0.53 0.52 0.53 0.54 0.55 0.55 0.58 0.60 0.59 0.59 0.58 0.58 0.57 0.55 0.53 0.51 0.49 0.48 0.46 0.44 0.45 0.43 0.38 0.35 0.35 0.30 0.26 0.26
0.57 0.57 0.55 0.54 0.54 0.55 0.56 0.55 0.55 0.56 0.58 0.58 0.58 0.59 0.59 0.59 0.59 0.59 0.56 0.54 0.53 0.53 0.52 0.52 0.52 0.52 0.51 0.50 0.51 0.50 0.51 0.51 0.51 0.51 0.51 0.50 0.50 0.49 0.48 0.47 0.46 0.47 0.49 0.52 0.54 0.56 0.57 0.58 0.58 0.57 0.55 0.54 0.53 0.52 0.53 0.54 0.52 0.52 0.51 0.51 0.51 0.51 0.53 0.56 0.57 0.57 0.57 0.56 0.56 0.54 0.52 0.50 0.49 0.48 0.46 0.45 0.45 0.44 0.40 0.33 0.33 0.31 0.27 0.26 0.24
0.58 0.58 0.60 0.61 0.61 0.59 0.58 0.58 0.59 0.61 0.60 0.59 0.60 0.59 0.59 0.58 0.59 0.59 0.57 0.56 0.55 0.55 0.54 0.53 0.53 0.53 0.53 0.52 0.51 0.51 0.51 0.52 0.52 0.52 0.52 0.52 0.52 0.51 0.49 0.47 0.45 0.45 0.46 0.46 0.50 0.51 0.51 0.52 0.52 0.52 0.52 0.50 0.50 0.50 0.51 0.53 0.52 0.52 0.52 0.51 0.50 0.50 0.52 0.53 0.53 0.52 0.52 0.52 0.51 0.51 0.50 0.49 0.49 0.49 0.49 0.45 0.42 0.39 0.37 0.34 0.33 0.29 0.26 0.26 0.25
0.57 0.59 0.61 0.61 0.60 0.60 0.60 0.59 0.58 0.59 0.60 0.61 0.61 0.59 0.58 0.57 0.56 0.56 0.56 0.56 0.54 0.54 0.53 0.51 0.50 0.49 0.50 0.50 0.51 0.52 0.52 0.53 0.53 0.53 0.52 0.52 0.52 0.52 0.50 0.47 0.45 0.44 0.46 0.45 0.45 0.47 0.47 0.47 0.47 0.47 0.48 0.47 0.47 0.47 0.48 0.49 0.50 0.51 0.52 0.51 0.49 0.48 0.51 0.52 0.52 0.52 0.50 0.49 0.48 0.49 0.48 0.48 0.47 0.45 0.42 0.40 0.39 0.38 0.36 0.35 0.33 0.31 0.28 0.27 0.27
0.55 0.55 0.55 0.56 0.58 0.59 0.58 0.57 0.55 0.55 0.56 0.56 0.59 0.59 0.58 0.57 0.57 0.56 0.54 0.55 0.54 0.53 0.52 0.51 0.50 0.49 0.50 0.51 0.51 0.52 0.53 0.53 0.54 0.53 0.53 0.52 0.52 0.52 0.52 0.51 0.49 0.48 0.47 0.46 0.46 0.45 0.45 0.46 0.47 0.47 0.47 0.47 0.47 0.47 0.48 0.48 0.49 0.50 0.49 0.48 0.48 0.48 0.50 0.49 0.48 0.48 0.48 0.48 0.47 0.45 0.43 0.41 0.39 0.37 0.36 0.35 0.35 0.34 0.34 0.34 0.34 0.33 0.31 0.28 0.27
0.53 0.52 0.50 0.51 0.53 0.56 0.56 0.55 0.57 0.56 0.55 0.55 0.55 0.56 0.57 0.57 0.56 0.56 0.56 0.56 0.55 0.53 0.53 0.51 0.51 0.50 0.50 0.50 0.50 0.50 0.51 0.51 0.52 0.52 0.52 0.52 0.52 0.52 0.51 0.53 0.53 0.50 0.47 0.47 0.47 0.47 0.47 0.47 0.46 0.46 0.47 0.47 0.47 0.47 0.47 0.48 0.50 0.50 0.48 0.48 0.48 0.48 0.48 0.48 0.47 0.45 0.44 0.41 0.39 0.36 0.35 0.34 0.34 0.33 0.33 0.32 0.32 0.33 0.33 0.33 0.34 0.34 0.35 0.34 0.31
0.50 0.50 0.50 0.50 0.50 0.52 0.55 0.55 0.55 0.57 0.56 0.56 0.55 0.54 0.56 0.57 0.59 0.59 0.58 0.56 0.54 0.53 0.52 0.51 0.49 0.48 0.48 0.48 0.49 0.50 0.51 0.51 0.50 0.51 0.51 0.52 0.53 0.53 0.52 0.53 0.55 0.55 0.50 0.46 0.46 0.47 0.49 0.49 0.48 0.48 0.47 0.47 0.47 0.46 0.46 0.45 0.45 0.46 0.46 0.46 0.46 0.45 0.45 0.44 0.42 0.40 0.37 0.35 0.33 0.32 0.32 0.31 0.30 0.30 0.30 0.30 0.32 0.33 0.34 0.34 0.35 0.35 0.34 0.35 0.35
0.49 0.48 0.48 0.48 0.49 0.49 0.51 0.54 0.56 0.56 0.56 0.55 0.54 0.53 0.53 0.54 0.55 0.55 0.54 0.53 0.51 0.50 0.49 0.49 0.48 0.47 0.46 0.46 0.47 0.48 0.50 0.50 0.50 0.50 0.51 0.51 0.52 0.53 0.53 0.53 0.55 0.56 0.54 0.51 0.50 0.50 0.49 0.49 0.48 0.47 0.46 0.45 0.44 0.43 0.43 0.43 0.42 0.42 0.42 0.42 0.42 0.41 0.40 0.38 0.36 0.34 0.32 0.30 0.29 0.28 0.28 0.29 0.29 0.29 0.30 0.31 0.32 0.33 0.33 0.33 0.34 0.34 0.34 0.34 0.35
0.48 0.47 0.47 0.47 0.48 0.49 0.49 0.49 0.52 0.54 0.53 0.52 0.50 0.51 0.52 0.53 0.51 0.52 0.51 0.51 0.49 0.48 0.47 0.47 0.45 0.45 0.45 0.44 0.44 0.45 0.45 0.46 0.46 0.46 0.47 0.48 0.49 0.51 0.51 0.52 0.54 0.54 0.53 0.52 0.51 0.50 0.49 0.47 0.46 0.46 0.45 0.44 0.43 0.42 0.42 0.42 0.41 0.41 0.40 0.38 0.37 0.35 0.33 0.32 0.31 0.30 0.28 0.27 0.27 0.27 0.28 0.29 0.30 0.31 0.32 0.32 0.33 0.34 0.33 0.34 0.34 0.35 0.35 0.35 0.35
0.46 0.46 0.47 0.47 0.48 0.48 0.47 0.47 0.48 0.51 0.53 0.53 0.51 0.50 0.49 0.49 0.49 0.50 0.50 0.50 0.49 0.48 0.47 0.46 0.45 0.45 0.45 0.45 0.44 0.43 0.43 0.43 0.43 0.44 0.44 0.45 0.46 0.48 0.50 0.51 0.51 0.51 0.51 0.50 0.49 0.48 0.47 0.46 0.46 0.45 0.45 0.44 0.43 0.42 0.41 0.40 0.37 0.36 0.34 0.33 0.33 0.32 0.31 0.30 0.29 0.28 0.27 0.27 0.27 0.27 0.28 0.30 0.31 0.33 0.34 0.34 0.33 0.32 0.33 0.33 0.33 0.33 0.35 0.34 0.34
0.42 0.43 0.43 0.45 0.47 0.48 0.47 0.46 0.46 0.47 0.49 0.51 0.51 0.51 0.51 0.50 0.49 0.48 0.48 0.48 0.48 0.48 0.46 0.45 0.44 0.44 0.43 0.44 0.44 0.43 0.42 0.41 0.41 0.41 0.42 0.42 0.43 0.45 0.47 0.49 0.49 0.48 0.47 0.47 0.47 0.47 0.46 0.46 0.45 0.44 0.43 0.41 0.39 0.37 0.36 0.34 0.34 0.33 0.33 0.32 0.31 0.31 0.30 0.29 0.28 0.28 0.28 0.28 0.29 0.30 0.31 0.32 0.34 0.33 0.32 0.32 0.32 0.34 0.35 0.35 0.34 0.34 0.36 0.36 0.36
0.36 0.36 0.38 0.40 0.41 0.43 0.44 0.46 0.47 0.47 0.47 0.49 0.49 0.50 0.51 0.51 0.50 0.49 0.48 0.48 0.46 0.45 0.44 0.43 0.42 0.41 0.41 0.42 0.42 0.41 0.40 0.39 0.39 0.39 0.40 0.41 0.42 0.44 0.45 0.46 0.47 0.47 0.46 0.47 0.46 0.45 0.43 0.42 0.43 0.43 0.41 0.39 0.37 0.36 0.35 0.34 0.33 0.32 0.31 0.31 0.30 0.31 0.31 0.31 0.32 0.32 0.32 0.32 0.32 0.32 0.32 0.32 0.31 0.32 0.33 0.34 0.34 0.36 0.37 0.37 0.37 0.38 0.39 0.40 0.38
0.33 0.33 0.34 0.35 0.35 0.37 0.39 0.41 0.44 0.47 0.49 0.50 0.51 0.53 0.52 0.51 0.51 0.53 0.53 0.53 0.51 0.47 0.45 0.43 0.43 0.44 0.43 0.42 0.40 0.39 0.38 0.37 0.38 0.42 0.42 0.42 0.41 0.42 0.43 0.45 0.47 0.46 0.46 0.46 0.45 0.43 0.42 0.40 0.40 0.39 0.37 0.34 0.33 0.33 0.33 0.32 0.31 0.31 0.31 0.30 0.30 0.32 0.32 0.32 0.31 0.32 0.32 0.32 0.31 0.31 0.31 0.32 0.33 0.35 0.35 0.36 0.37 0.39 0.42 0.41 0.42 0.42 0.43 0.43 0.42
0.30 0.30 0.31 0.33 0.34 0.36 0.37 0.38 0.40 0.43 0.45 0.47 0.48 0.50 0.53 0.54 0.53 0.52 0.52 0.51 0.50 0.49 0.47 0.44 0.46 0.45 0.43 0.43 0.43 0.40 0.38 0.39 0.42 0.42 0.41 0.41 0.41 0.42 0.44 0.45 0.46 0.45 0.44 0.43 0.42 0.38 0.37 0.36 0.36 0.36 0.35 0.33 0.32 0.32 0.32 0.31 0.31 0.30 0.30 0.30 0.31 0.32 0.32 0.32 0.32 0.32 0.33 0.33 0.33 0.33 0.33 0.34 0.35 0.36 0.38 0.39 0.41 0.43 0.45 0.45 0.45 0.47 0.47 0.47 0.47
0.29 0.28 0.29 0.30 0.32 0.35 0.36 0.37 0.39 0.41 0.43 0.44 0.44 0.44 0.46 0.49 0.52 0.53 0.52 0.51 0.49 0.48 0.46 0.46 0.47 0.46 0.45 0.43 0.44 0.43 0.42 0.41 0.41 0.42 0.41 0.41 0.41 0.42 0.43 0.45 0.44 0.43 0.42 0.39 0.37 0.35 0.35 0.34 0.34 0.34 0.33 0.33 0.32 0.33 0.33 0.31 0.30 0.29 0.30 0.31 0.32 0.31 0.31 0.32 0.33 0.34 0.34 0.34 0.35 0.35 0.36 0.37 0.38 0.39 0.40 0.42 0.43 0.45 0.47 0.50 0.51 0.52 0.51 0.51 0.50
0.30 0.29 0.30 0.31 0.32 0.33 0.35 0.36 0.38 0.39 0.40 0.43 0.43 0.45 0.45 0.44 0.47 0.50 0.50 0.48 0.47 0.46 0.46 0.46 0.46 0.45 0.45 0.44 0.43 0.42 0.41 0.42 0.42 0.43 0.43 0.42 0.41 0.42 0.43 0.44 0.43 0.42 0.40 0.38 0.36 0.36 0.35 0.33 0.32 0.33 0.33 0.32 0.32 0.33 0.34 0.31 0.29 0.29 0.29 0.29 0.29 0.30 0.31 0.32 0.34 0.35 0.35 0.35 0.36 0.37 0.38 0.40 0.41 0.42 0.44 0.45 0.47 0.49 0.51 0.52 0.53 0.52 0.52 0.52 0.51
0.33 0.33 0.34 0.34 0.34 0.34 0.35 0.37 0.39 0.39 0.40 0.41 0.42 0.42 0.41 0.41 0.40 0.42 0.46 0.47 0.46 0.44 0.44 0.44 0.43 0.43 0.43 0.42 0.42 0.41 0.41 0.42 0.44 0.44 0.44 0.43 0.43 0.43 0.43 0.44 0.43 0.42 0.40 0.38 0.37 0.36 0.35 0.34 0.34 0.34 0.32 0.31 0.34 0.34 0.33 0.30 0.29 0.29 0.28 0.28 0.28 0.30 0.32 0.34 0.36 0.36 0.36 0.37 0.38 0.39 0.41 0.42 0.44 0.45 0.47 0.49 0.50 0.50 0.52 0.52 0.52 0.52 0.51 0.49 0.49
0.37 0.37 0.38 0.39 0.38 0.38 0.38 0.39 0.39 0.40 0.41 0.41 0.41 0.41 0.41 0.41 0.40 0.40 0.39 0.39 0.41 0.43 0.43 0.43 0.43 0.42 0.41 0.40 0.39 0.40 0.41 0.42 0.42 0.43 0.43 0.43 0.43 0.43 0.43 0.43 0.44 0.42 0.40 0.38 0.37 0.35 0.34 0.33 0.32 0.31 0.31 0.34 0.35 0.34 0.30 0.29 0.29 0.28 0.28 0.28 0.29 0.31 0.33 0.36 0.36 0.36 0.36 0.38 0.40 0.42 0.43 0.45 0.47 0.48 0.50 0.51 0.52 0.52 0.51 0.51 0.51 0.50 0.49 0.49 0.48
0.40 0.41 0.42 0.42 0.42 0.41 0.41 0.40 0.40 0.40 0.40 0.40 0.40 0.40 0.39 0.40 0.40 0.39 0.37 0.36 0.36 0.36 0.38 0.40 0.41 0.41 0.40 0.39 0.40 0.41 0.42 0.42 0.43 0.44 0.44 0.44 0.44 0.44 0.44 0.43 0.40 0.41 0.40 0.39 0.36 0.35 0.34 0.32 0.30 0.32 0.35 0.35 0.34 0.31 0.29 0.29 0.28 0.28 0.28 0.28 0.29 0.31 0.33 0.34 0.35 0.36 0.37 0.39 0.41 0.43 0.45 0.47 0.49 0.51 0.51 0.51 0.51 0.50 0.50 0.50 0.50 0.50 0.50 0.50 0.50
0.43 0.43 0.43 0.43 0.42 0.42 0.41 0.41 0.40 0.39 0.38 0.38 0.39 0.38 0.38 0.38 0.37 0.37 0.37 0.37 0.36 0.35 0.36 0.37 0.37 0.38 0.39 0.40 0.42 0.43 0.43 0.43 0.44 0.45 0.46 0.46 0.45 0.43 0.42 0.41 0.40 0.40 0.38 0.36 0.35 0.35 0.35 0.34 0.34 0.36 0.37 0.35 0.32 0.30 0.29 0.29 0.28 0.28 0.27 0.27 0.28 0.30 0.32 0.33 0.35 0.36 0.37 0.39 0.41 0.44 0.47 0.49 0.51 0.52 0.52 0.52 0.51 0.51 0.51 0.51 0.51 0.51 0.51 0.51 0.51
0.44 0.43 0.43 0.44 0.44 0.44 0.44 0.43 0.42 0.40 0.39 0.38 0.38 0.37 0.37 0.37 0.36 0.36 0.36 0.35 0.35 0.35 0.34 0.34 0.35 0.37 0.40 0.42 0.44 0.44 0.45 0.45 0.46 0.46 0.46 0.46 0.46 0.44 0.41 0.40 0.38 0.37 0.36 0.35 0.35 0.34 0.34 0.35 0.38 0.38 0.35 0.31 0.30 0.30 0.30 0.29 0.28 0.27 0.25 0.25 0.27 0.29 0.30 0.32 0.35 0.36 0.36 0.37 0.40 0.44 0.47 0.49 0.51 0.51 0.51 0.50 0.51 0.52 0.52 0.52 0.52 0.52 0.52 0.52 0.51
0.44 0.44 0.44 0.44 0.43 0.43 0.42 0.40 0.39 0.38 0.38 0.38 0.38 0.39 0.39 0.40 0.40 0.39 0.38 0.36 0.35 0.34 0.33 0.35 0.36 0.37 0.38 0.40 0.43 0.44 0.46 0.46 0.46 0.44 0.45 0.44 0.42 0.39 0.37 0.37 0.37 0.36 0.35 0.35 0.34 0.35 0.36 0.38 0.38 0.35 0.31 0.31 0.30 0.30 0.29 0.28 0.28 0.26 0.24 0.23 0.25 0.27 0.30 0.32 0.34 0.35 0.36 0.37 0.39 0.44 0.47 0.49 0.51 0.51 0.51 0.51 0.51 0.51 0.52 0.52 0.52 0.51 0.52 0.52 0.51
0.45 0.44 0.43 0.42 0.41 0.40 0.40 0.39 0.39 0.39 0.39 0.38 0.37 0.36 0.35 0.35 0.36 0.37 0.37 0.36 0.36 0.36 0.36 0.38 0.39 0.39 0.39 0.42 0.44 0.46 0.46 0.43 0.41 0.41 0.41 0.40 0.39 0.40 0.41 0.40 0.38 0.36 0.35 0.35 0.35 0.37 0.38 0.38 0.34 0.31 0.31 0.31 0.31 0.30 0.29 0.28 0.27 0.25 0.23 0.22 0.23 0.26 0.28 0.31 0.33 0.34 0.35 0.36 0.38 0.42 0.46 0.49 0.50 0.51 0.51 0.51 0.51 0.52 0.52 0.52 0.52 0.52 0.51 0.51 0.51
0.43 0.42 0.43 0.42 0.42 0.42 0.42 0.40 0.40 0.39 0.38 0.36 0.36 0.36 0.35 0.34 0.35 0.36 0.37 0.37 0.37 0.38 0.39 0.39 0.39 0.40 0.43 0.46 0.46 0.46 0.43 0.42 0.41 0.41 0.41 0.41 0.42 0.42 0.42 0.39 0.36 0.35 0.35 0.36 0.37 0.38 0.37 0.33 0.31 0.31 0.31 0.31 0.31 0.30 0.29 0.27 0.25 0.24 0.23 0.21 0.21 0.24 0.27 0.30 0.32 0.33 0.34 0.35 0.37 0.40 0.44 0.47 0.49 0.50 0.50 0.50 0.51 0.52 0.52 0.52 0.52 0.53 0.53 0.52 0.53
0.44 0.45 0.44 0.43 0.43 0.44 0.44 0.44 0.43 0.42 0.42 0.41 0.41 0.39 0.38 0.37 0.37 0.38 0.38 0.39 0.40 0.40 0.41 0.42 0.44 0.46 0.48 0.48 0.47 0.46 0.45 0.43 0.42 0.41 0.41 0.42 0.42 0.42 0.41 0.38 0.37 0.36 0.37 0.38 0.38 0.35 0.31 0.31 0.31 0.31 0.31 0.31 0.31 0.30 0.28 0.26 0.25 0.24 0.22 0.21 0.21 0.23 0.26 0.29 0.31 0.32 0.34 0.35 0.36 0.37 0.41 0.44 0.47 0.48 0.48 0.49 0.51 0.51 0.52 0.53 0.53 0.54 0.54 0.54 0.54
0.45 0.45 0.46 0.47 0.47 0.47 0.47 0.46 0.46 0.46 0.45 0.45 0.44 0.43 0.41 0.40 0.40 0.41 0.41 0.41 0.42 0.43 0.44 0.45 0.47 0.47 0.48 0.48 0.45 0.45 0.43 0.41 0.41 0.42 0.43 0.43 0.43 0.42 0.41 0.40 0.39 0.38 0.37 0.36 0.32 0.31 0.32 0.32 0.32 0.32 0.32 0.32 0.31 0.29 0.28 0.26 0.25 0.24 0.22 0.22 0.21 0.22 0.24 0.27 0.29 0.30 0.32 0.34 0.35 0.36 0.38 0.41 0.44 0.46 0.48 0.49 0.49 0.50 0.51 0.52 0.53 0.54 0.54 0.54 0.54
0.48 0.49 0.49 0.50 0.49 0.48 0.48 0.48 0.47 0.46 0.45 0.46 0.45 0.45 0.44 0.43 0.43 0.43 0.43 0.43 0.44 0.46 0.46 0.46 0.46 0.46 0.46 0.44 0.44 0.44 0.43 0.44 0.44 0.44 0.44 0.43 0.43 0.43 0.43 0.42 0.40 0.37 0.34 0.32 0.33 0.33 0.33 0.33 0.33 0.33 0.33 0.33 0.31 0.29 0.28 0.26 0.26 0.24 0.23 0.22 0.22 0.22 0.24 0.26 0.28 0.29 0.30 0.32 0.33 0.35 0.36 0.38 0.40 0.42 0.45 0.47 0.49 0.49 0.50 0.51 0.52 0.53 0.54 0.54 0.54
0.51 0.51 0.51 0.51 0.50 0.50 0.50 0.49 0.48 0.47 0.47 0.47 0.47 0.47 0.46 0.45 0.46 0.46 0.46 0.46 0.47 0.47 0.47 0.45 0.44 0.45 0.46 0.47 0.47 0.46 0.45 0.45 0.45 0.44 0.44 0.45 0.45 0.45 0.44 0.41 0.36 0.31 0.30 0.32 0.33 0.34 0.34 0.34 0.34 0.34 0.34 0.33 0.31 0.29 0.28 0.28 0.27 0.26 0.24 0.23 0.23 0.22 0.23 0.26 0.28 0.29 0.29 0.30 0.32 0.33 0.34 0.36 0.38 0.39 0.41 0.44 0.46 0.47 0.48 0.50 0.51 0.52 0.53 0.54 0.54
0.52 0.52 0.51 0.50 0.50 0.50 0.49 0.50 0.49 0.49 0.48 0.48 0.47 0.47 0.47 0.47 0.47 0.47 0.47 0.47 0.46 0.46 0.45 0.44 0.45 0.45 0.45 0.44 0.44 0.44 0.44 0.44 0.44 0.44 0.44 0.45 0.44 0.43 0.42 0.37 0.32 0.29 0.30 0.32 0.34 0.35 0.34 0.34 0.34 0.34 0.34 0.32 0.30 0.28 0.28 0.28 0.28 0.27 0.26 0.25 0.23 0.23 0.24 0.26 0.28 0.29 0.30 0.30 0.30 0.32 0.33 0.34 0.36 0.37 0.39 0.40 0.43 0.45 0.47 0.49 0.50 0.51 0.52 0.53 0.53
0.52 0.51 0.50 0.50 0.50 0.50 0.49 0.49 0.50 0.49 0.49 0.48 0.47 0.47 0.47 0.47 0.47 0.47 0.47 0.47 0.46 0.46 0.46 0.46 0.45 0.45 0.44 0.43 0.43 0.44 0.44 0.44 0.43 0.43 0.43 0.43 0.42 0.41 0.39 0.35 0.32 0.30 0.31 0.33 0.34 0.35 0.35 0.35 0.34 0.34 0.33 0.31 0.29 0.28 0.29 0.29 0.29 0.29 0.28 0.27 0.26 0.25 0.26 0.27 0.29 0.29 0.30 0.30 0.30 0.31 0.33 0.34 0.34 0.36 0.38 0.39 0.40 0.43 0.45 0.48 0.50 0.51 0.51 0.52 0.53
0.52 0.51 0.51 0.51 0.50 0.49 0.49 0.50 0.50 0.49 0.49 0.48 0.48 0.48 0.47 0.46 0.46 0.46 0.47 0.47 0.47 0.47 0.46 0.46 0.46 0.45 0.45 0.43 0.43 0.43 0.43 0.42 0.40 0.39 0.39 0.40 0.40 0.40 0.38 0.35 0.32 0.31 0.33 0.35 0.35 0.35 0.35 0.35 0.35 0.34 0.33 0.30 0.29 0.29 0.29 0.29 0.29 0.29 0.29 0.28 0.28 0.27 0.26 0.27 0.28 0.29 0.30 0.31 0.31 0.31 0.32 0.33 0.34 0.35 0.37 0.38 0.39 0.40 0.42 0.44 0.46 0.49 0.51 0.52 0.53
0.51 0.51 0.51 0.50 0.49 0.48 0.47 0.47 0.46 0.47 0.48 0.48 0.47 0.46 0.46 0.45 0.45 0.44 0.43 0.43 0.44 0.45 0.45 0.44 0.44 0.43 0.42 0.42 0.42 0.41 0.39 0.38 0.38 0.38 0.39 0.38 0.40 0.39 0.38 0.36 0.33 0.32 0.34 0.34 0.35 0.35 0.35 0.35 0.34 0.34 0.32 0.30 0.29 0.29 0.28 0.28 0.28 0.28 0.28 0.28 0.28 0.27 0.26 0.26 0.27 0.29 0.31 0.31 0.31 0.31 0.32 0.33 0.34 0.35 0.36 0.36 0.37 0.38 0.39 0.40 0.43 0.46 0.49 0.52 0.53
0.51 0.50 0.49 0.49 0.48 0.47 0.46 0.46 0.45 0.45 0.44 0.43 0.42 0.41 0.39 0.39 0.39 0.39 0.40 0.39 0.39 0.39 0.39 0.39 0.40 0.41 0.40 0.39 0.39 0.37 0.37 0.36 0.36 0.36 0.37 0.38 0.39 0.39 0.38 0.36 0.33 0.33 0.33 0.33 0.33 0.34 0.34 0.35 0.34 0.34 0.33 0.31 0.30 0.29 0.29 0.28 0.28 0.28 0.28 0.28 0.28 0.28 0.27 0.26 0.27 0.29 0.30 0.31 0.31 0.31 0.32 0.33 0.34 0.34 0.35 0.36 0.36 0.38 0.39 0.40 0.41 0.43 0.46 0.49 0.51
0.51 0.49 0.48 0.47 0.46 0.45 0.45 0.46 0.45 0.46 0.45 0.44 0.42 0.40 0.39 0.37 0.36 0.36 0.35 0.36 0.36 0.37 0.37 0.37 0.37 0.37 0.36 0.36 0.35 0.35 0.35 0.35 0.35 0.35 0.36 0.37 0.38 0.39 0.38 0.35 0.33 0.33 0.33 0.33 0.34 0.34 0.35 0.35 0.34 0.34 0.32 0.30 0.29 0.29 0.29 0.29 0.29 0.29 0.29 0.28 0.28 0.28 0.27 0.27 0.26 0.28 0.30 0.31 0.31 0.31 0.31 0.32 0.33 0.34 0.35 0.35 0.36 0.36 0.37 0.38 0.40 0.41 0.43 0.45 0.47
0.49 0.48 0.47 0.46 0.45 0.45 0.45 0.44 0.43 0.44 0.44 0.43 0.42 0.42 0.42 0.40 0.37 0.36 0.35 0.34 0.34 0.34 0.35 0.34 0.33 0.33 0.33 0.33 0.33 0.33 0.33 0.33 0.34 0.35 0.36 0.36 0.37 0.38 0.37 0.34 0.33 0.33 0.33 0.34 0.34 0.34 0.34 0.34 0.33 0.32 0.31 0.30 0.30 0.30 0.30 0.29 0.29 0.29 0.29 0.29 0.29 0.28 0.28 0.28 0.26 0.26 0.29 0.31 0.32 0.32 0.31 0.32 0.32 0.32 0.33 0.34 0.35 0.35 0.36 0.37 0.39 0.40 0.41 0.42 0.44
Wind_Speed
12 13 14 14 14 14 15 15 14 13 13 13 12 12 12 12 12 12 12 12 12 11 11 11 10 9 9 8 7 7 6 6 6 6 6 7 7 7 7 7 7 7 7 7 7 7 7 7 7 7 7 7 7 7 7 7 7 7 6 6 6 7 8 8 8 8 8 9 9 9 9 9 10 10 10 10 11 11 11 11 12 12 12 13 13
10 11 12 13 13 13 14 14 14 14 14 13 13 13 12 12 12 12 13 13 13 13 12 12 11 11 10 10 9 8 8 8 8 8 8 8 8 8 9 9 9 9 9 9 8 8 8 8 8 8 8 8 8 8 8 8 8 8 8 8 8 8 8 9 9 9 9 10 10 11 11 11 11 11 12 12 12 12 12 13 13 13 14 14 15
10 11 12 12 13 12 13 14 15 15 14 14 14 14 13 13 13 13 14 14 14 14 13 13 13 12 12 11 11 11 10 10 10 10 10 10 11 11 10 10 11 10 10 10 10 10 10 10 10 10 10 10 10 10 10 10 10 10 10 10 10 10 10 10 10 10 11 11 12 12 12 13 13 13 13 13 14 14 14 14 15 15 15 16 16
11 11 12 12 12 12 13 13 14 15 15 15 15 14 14 13 13 13 14 14 15 15 15 14 14 14 14 14 14 14 13 13 12 12 13 13 13 13 13 13 13 12 13 12 12 12 12 12 12 12 11 11 11 11 11 11 11 11 11 11 11 11 11 11 12 12 12 13 13 14 14 14 14 15 15 15 15 16 16 16 17 17 17 18 18
12 12 12 12 13 13 13 13 14 15 15 15 15 15 14 14 14 13 13 14 15 15 16 16 16 16 16 16 16 16 16 15 15 15 15 15 15 15 15 14 14 14 14 15 15 14 14 14 14 14 14 14 13 13 13 13 13 13 13 13 13 13 13 13 13 13 13 13 14 14 15 15 15 16 16 17 17 17 18 18 19 19 19 20 20
12 12 13 13 13 14 14 14 14 15 15 15 16 16 16 15 15 15 15 15 15 15 16 16 17 17 17 17 17 17 17 17 17 17 17 16 15 15 15 15 15 15 15 16 17 17 17 17 17 16 16 16 16 15 15 15 15 15 15 15 15 15 15 15 15 15 15 15 15 16 16 16 17 17 17 18 18 19 20 20 21 21 22 22 23
13 13 13 13 14 14 14 14 15 16 16 16 16 17 17 17 17 16 16 16 16 16 17 17 18 18 18 18 19 19 19 18 18 18 17 16 16 16 16 16 17 17 16 17 17 18 18 18 18 18 18 19 19 18 18 18 18 18 18 18 18 18 17 17 17 17 17 17 17 17 17 18 18 19 19 19 20 20 21 22 23 23 24 25 25
13 13 13 13 14 14 14 15 15 16 16 17 17 17 18 18 18 17 17 17 17 17 17 18 18 19 19 19 19 19 19 18 18 18 18 17 17 17 17 18 18 18 18 18 18 18 18 18 19 19 20 21 21 21 21 21 21 21 20 20 20 20 20 20 20 19 19 19 19 19 19 20 20 20 21 21 22 22 23 24 25 25 26 27 27
13 13 13 13 14 14 14 15 15 15 16 17 17 17 18 18 19 19 19 19 18 18 19 19 19 19 19 18 18 18 18 18 18 18 18 18 18 18 19 19 20 20 20 20 20 20 20 21 21 21 22 23 24 24 24 24 23 23 23 23 22 22 22 22 22 22 22 22 22 22 22 22 22 23 23 24 24 25 25 26 26 27 28 28 28
14 14 15 15 15 15 15 15 16 16 17 17 17 18 18 19 20 20 20 20 19 19 19 19 18 18 18 18 18 18 18 18 18 18 19 19 19 19 20 20 20 21 21 21 22 22 22 22 23 24 24 24 24 25 25 25 25 25 25 25 25 25 25 24 24 25 25 24 24 25 25 25 25 25 26 26 27 27 28 28 28 29 29 30 30
16 17 17 17 17 17 18 18 18 18 18 19 19 19 19 20 20 21 21 20 19 18 18 17 17 17 17 17 17 17 17 17 17 18 18 19 19 20 20 20 20 21 21 22 22 23 22 22 23 24 24 24 23 23 24 25 26 26 26 26 26 26 26 26 27 27 27 27 27 27 27 28 28 28 29 29 29 29 30 30 30 31 31 32 32
17 17 18 18 18 19 19 19 19 20 20 20 20 20 20 20 20 20 20 20 19 18 18 17 17 17 17 17 17 17 17 17 18 18 18 19 20 20 21 21 22 22 22 22 23 23 23 23 23 24 24 25 25 25 25 26 27 28 28 28 28 28 28 29 29 29 29 29 29 30 30 30 30 30 31 31 31 32 32 32 32 33 33 34 34
17 17 18 18 19 19 20 20 20 21 21 21 20 20 20 20 20 20 20 20 19 19 18 18 18 18 17 17 18 18 18 19 19 20 20 20 21 22 22 23 23 23 24 24 23 24 24 24 24 25 25 26 26 27 27 27 28 29 29 29 29 29 29 30 30 30 30 31 31 32 32 32 32 32 33 33 34 34 34 35 35 35 36 36 37
17 17 18 19 19 19 20 20 20 21 21 21 21 20 20 20 20 20 20 20 20 19 19 19 19 19 19 19 20 20 20 21 22 22 22 22 23 24 24 24 24 25 25 25 25 25 25 25 25 26 26 26 27 27 28 28 28 29 29 29 29 29 30 30 30 30 31 32 32 32 32 32 33 34 34 35 35 36 36 37 37 38 38 39 39
17 17 18 18 19 19 20 20 20 20 21 21 21 20 20 20 20 21 21 21 21 21 20 20 20 21 21 21 21 21 21 22 22 22 22 23 23 24 25 25 25 25 26 26 26 26 26 26 26 26 27 27 27 28 28 28 29 29 28 28 29 30 30 31 31 31 32 32 33 33 33 33 34 35 35 36 36 37 38 39 39 40 40 40 40
17 17 17 17 18 19 19 20 20 21 21 21 21 21 21 21 22 22 22 22 22 21 21 21 21 22 22 22 22 22 22 23 23 23 23 23 24 24 25 25 25 26 26 26 26 26 26 26 26 26 26 27 27 27 28 28 28 28 28 28 29 30 31 31 31 32 32 33 33 33 34 34 35 35 36 36 37 38 38 39 39 40 40 41 41
19 19 19 19 19 19 20 20 21 21 21 22 22 22 22 22 22 23 22 22 22 22 22 22 22 22 22 23 23 23 23 23 23 23 23 24 24 24 24 25 25 25 26 26 26 26 26 26 26 26 26 27 27 27 27 28 28 28 28 29 30 31 31 32 32 32 33 33 33 34 34 35 35 36 37 38 38 38 39 39 39 40 40 41 41
22 23 23 23 22 22 23 23 23 23 23 23 23 22 22 22 22 22 22 22 22 22 22 22 23 23 23 23 23 23 23 23 24 24 24 24 25 24 25 25 25 25 25 25 26 26 26 26 26 27 27 27 27 27 27 28 28 28 29 30 31 31 32 33 33 33 33 34 34 35 35 36 37 38 38 39 39 39 39 40 40 41 41 42 42
25 25 25 26 25 25 25 24 25 24 24 24 24 24 23 23 23 23 23 23 23 23 23 23 23 23 24 24 24 24 24 24 25 25 25 25 25 25 25 25 25 25 25 25 25 26 26 26 26 27 27 27 27 26 27 28 28 29 30 31 31 32 33 33 34 34 34 35 36 36 37 37 38 39 39 39 39 40 40 41 41 41 42 42 42
27 27 27 27 27 26 26 26 25 25 25 25 25 25 25 25 25 25 25 25 25 25 25 25 25 25 26 26 26 26 26 26 26 26 26 26 26 26 26 26 26 26 26 26 26 26 26 26 26 26 26 26 26 26 27 28 29 30 30 31 32 32 33 33 34 35 35 36 37 37 38 38 39 39 39 39 40 40 40 41 41 41 41 42 42
30 30 29 29 29 28 28 28 27 27 27 27 27 27 27 27 27 27 27 27 27 27 27 27 27 27 27 27 28 28 28 28 27 27 27 28 28 28 27 27 27 27 27 27 27 27 27 26 26 26 26 26 26 27 27 28 29 30 31 31 32 33 33 34 35 35 36 37 37 37 38 38 38 38 39 39 40 40 40 40 40 40 41 41 41
32 32 31 31 31 31 31 30 30 30 29 30 30 31 31 31 31 31 31 30 29 29 28 28 28 28 28 28 29 29 29 29 29 29 29 29 29 29 29 28 28 28 28 27 27 27 27 27 27 27 27 27 27 28 28 29 29 30 31 31 32 33 34 34 35 35 36 36 36 37 37 37 38 38 38 39 39 39 39 40 40 41 41 42 42
33 33 33 33 33 33 33 33 32 32 31 32 32 33 33 33 33 33 32 31 30 30 30 29 29 29 29 29 30 30 30 30 30 30 30 30 31 30 30 29 29 29 28 28 27 27 27 27 27 27 27 28 28 29 29 29 30 30 31 31 32 33 33 33 34 34 35 35 36 36 36 36 37 37 37 37 38 38 39 40 40 41 42 42 42
35 34 34 34 34 34 34 34 34 34 33 33 33 33 33 33 33 33 33 32 32 31 31 31 30 31 31 31 31 31 31 31 31 31 31 31 32 31 31 30 30 29 29 28 28 28 28 28 28 28 28 28 28 29 29 29 29 30 30 31 31 32 32 32 33 33 34 34 34 34 35 35 35 36 36 36 37 38 39 39 40 40 40 41 41
37 37 36 36 35 35 35 36 36 36 35 35 34 34 33 33 33 33 34 34 33 33 33 32 32 32 32 32 32 32 32 32 32 32 32 32 32 32 31 30 30 29 29 29 28 28 28 28 28 28 28 28 28 28 28 28 28 29 29 30 30 31 31 31 31 32 32 32 33 33 33 33 34 34 35 36 36 37 37 37 38 38 39 39 40
39 39 38 38 38 37 37 37 37 37 37 36 36 36 35 35 35 35 34 35 34 34 34 34 33 33 33 33 33 33 33 33 33 33 32 32 32 31 31 30 29 29 28 28 28 27 27 27 27 27 27 27 28 28 28 28 28 28 29 29 29 29 29 29 29 30 30 30 31 31 31 32 32 33 34 34 34 35 35 35 36 37 37 38 38
41 41 40 40 40 39 39 39 39 39 39 38 38 38 38 37 37 37 37 37 36 36 36 35 35 35 35 35 35 35 34 34 33 33 33 32 32 31 30 30 29 28 28 28 28 27 27 27 27 27 27 27 27 27 27 28 28 27 27 27 27 27 27 27 27 28 28 28 29 29 29 30 30 31 32 32 32 33 34 34 35 35 35 35 35
43 43 43 42 42 41 41 40 40 40 40 40 40 40 40 40 39 39 39 39 38 38 38 37 37 36 36 36 36 36 35 35 35 34 33 33 32 31 30 30 29 29 28 28 27 27 27 27 27 27 27 26 26 26 26 26 26 25 25 25 25 25 25 25 25 26 26 26 27 27 28 28 29 30 30 31 31 32 32 32 33 33 33 33 33
44 44 44 43 43 42 42 41 41 41 41 41 41 41 41 40 40 40 40 40 40 39 39 39 38 38 38 38 37 37 37 37 36 35 34 33 32 31 30 29 29 28 28 27 27 27 27 27 26 26 26 25 25 25 24 24 24 24 23 23 23 23 23 23 23 24 24 25 25 26 27 27 28 29 29 30 30 30 30 31 31 31 31 30 30
43 44 43 43 43 42 42 41 41 41 41 41 41 41 41 40 40 40 40 40 40 40 40 40 39 39 39 39 39 38 38 37 36 35 34 33 32 31 30 29 28 28 27 27 27 27 26 26 25 25 24 24 24 23 23 22 22 22 22 21 21 21 21 21 22 22 23 24 25 25 26 27 27 28 28 28 29 29 29 29 29 28 27 26 25
41 41 42 42 42 42 41 41 40 40 40 40 40 40 40 40 40 40 40 39 39 40 40 40 40 39 39 39 39 38 38 37 36 35 34 33 32 30 29 29 28 27 27 26 26 25 25 24 24 23 23 22 22 21 21 20 20 20 19 19 19 19 20 20 21 22 22 23 24 24 25 26 26 26 27 27 27 27 26 26 25 24 23 22 22
38 38 39 39 39 39 39 39 38 38 38 38 38 39 39 39 39 39 39 39 39 39 39 39 39 39 39 38 38 38 37 36 35 34 33 32 31 30 29 28 27 26 26 25 24 23 23 22 22 21 21 20 20 19 18 18 18 17 17 17 18 18 19 19 20 21 21 22 23 23 24 25 25 25 25 26 25 24 23 22 21 20 20 20 20
36 36 36 36 36 36 36 36 36 36 37 37 38 38 39 39 39 39 39 38 38 38 38 38 37 37 37 37 37 36 35 34 33 32 31 30 29 28 27 26 26 25 24 23 22 22 21 20 20 19 19 18 18 17 16 16 15 15 16 16 17 17 18 18 18 19 20 21 22 23 23 24 24 24 24 23 22 21 20 19 19 19 19 20 20
34 34 33 33 33 33 33 33 34 34 35 36 36 37 38 38 39 39 38 38 38 37 37 36 36 35 35 35 35 34 33 32 31 30 29 28 27 26 25 24 24 23 23 22 21 20 19 18 18 18 17 16 16 15 14 14 14 14 15 15 15 16 16 16 17 18 19 20 21 22 22 23 22 22 21 20 19 19 19 19 19 19 20 21 21
31 31 30 30 30 30 30 31 32 32 33 34 35 36 36 37 37 38 38 37 37 37 36 35 34 34 34 33 33 32 30 29 28 28 27 26 25 24 23 22 22 21 21 20 20 19 18 17 17 16 16 15 14 13 13 13 13 13 13 13 13 13 14 15 16 17 18 19 20 21 22 21 20 19 18 18 18 18 18 18 18 19 20 20 20
28 27 27 27 27 27 28 29 29 30 31 33 33 34 35 35 36 36 36 36 36 35 35 34 33 32 31 31 30 29 28 27 26 25 25 24 23 22 21 21 20 20 20 19 18 18 17 16 16 15 14 13 13 12 12 12 11 11 11 11 11 12 13 14 14 16 17 19 20 21 21 19 18 17 16 17 17 17 17 17 18 19 19 19 19
24 23 23 23 24 24 25 26 27 28 29 30 31 32 33 33 34 34 35 35 35 34 33 32 31 30 28 28 27 26 25 24 23 23 22 22 21 21 20 20 20 19 18 18 17 16 15 15 14 13 12 12 11 10 10 10 9 9 9 9 10 11 12 13 14 15 17 19 20 20 19 17 16 16 16 16 16 16 16 17 17 18 18 18 18
19 19 19 20 21 22 23 24 25 26 27 28 29 30 30 30 31 31 31 31 31 30 30 29 28 27 26 25 24 24 23 22 22 21 21 20 20 19 19 19 18 18 17 16 16 15 14 13 13 12 11 10 9 8 8 8 8 8 8 9 9 10 11 12 14 15 17 18 19 19 18 16 15 15 15 15 16 16 16 16 17 17 17 17 17
14 15 16 17 18 19 21 22 23 24 25 26 27 27 27 27 27 27 26 26 26 25 25 25 25 24 24 24 23 23 22 21 20 20 19 19 18 17 17 17 16 15 15 14 14 13 12 12 11 10 9 8 7 7 7 7 7 7 7 8 8 9 10 12 13 15 16 18 19 19 18 16 15 15 15 15 15 16 16 16 16 16 16 17 17
11 12 13 14 15 16 18 20 21 23 24 25 26 26 25 24 23 23 22 21 21 21 22 22 22 22 22 22 21 21 20 19 19 18 18 17 17 16 16 15 14 13 13 13 12 12 11 11 10 9 8 7 7 7 6 6 6 6 6 7 7 9 10 12 13 14 16 17 19 19 18 17 16 15 15 14 15 15 16 16 16 16 16 16 17
9 9 10 11 12 14 15 17 18 19 20 21 21 22 21 21 20 19 19 19 19 19 19 19 18 19 19 19 19 19 19 18 18 17 17 16 16 15 14 13 13 13 13 12 12 11 11 10 9 8 7 7 6 6 5 5 5 5 5 6 7 8 10 11 12 13 15 17 18 19 19 18 16 16 15 15 15 15 15 15 15 16 16 17 17
6 6 6 7 8 9 10 10 11 11 11 11 12 13 14 15 15 15 15 16 15 15 15 15 15 16 17 17 17 18 18 18 17 16 15 14 14 14 13 13 12 12 12 11 11 11 10 9 9 8 7 7 6 5 5 5 5 5 5 6 7 8 10 11 12 13 15 16 17 19 19 19 18 17 16 15 15 15 15 15 15 16 16 17 17
3 2 2 3 3 4 4 4 4 4 2 1 2 5 7 9 10 11 12 12 12 12 13 14 15 16 16 16 17 18 17 17 16 16 14 13 13 13 13 12 11 11 11 11 11 11 10 9 8 8 7 6 6 5 5 5 4 5 5 6 7 8 9 10 12 13 15 16 17 18 19 19 19 18 17 16 15 15 15 15 15 15 16 16 17
3 2 2 2 4 5 6 6 7 8 8 8 7 7 8 9 9 10 12 13 13 13 14 15 16 16 16 16 16 16 16 15 15 15 14 13 12 12 12 11 11 11 11 11 11 10 9 9 8 7 7 6 6 5 5 4 4 4 5 6 7 8 9 10 12 13 14 16 17 18 19 19 20 19 18 17 16 16 15 15 15 15 15 15 16
4 4 3 3 4 5 6 8 9 10 10 11 12 12 12 12 12 13 14 14 14 14 14 15 16 16 15 14 14 14 14 14 14 13 13 12 12 12 11 11 11 11 11 10 10 9 9 8 8 7 7 6 6 5 5 4 4 4 5 6 7 8 9 10 12 13 14 15 16 17 18 19 20 20 19 19 18 17 16 15 15 15 14 15 15
5 5 4 5 5 6 7 8 9 9 10 10 11 11 12 12 12 13 13 14 14 13 12 13 14 14 14 13 13 13 13 13 13 13 13 12 12 12 11 11 10 10 10 9 9 9 8 8 8 7 7 6 6 5 4 4 4 4 5 6 7 8 10 11 12 13 14 15 16 17 18 19 19 20 20 20 19 18 17 16 15 14 14 14 14
6 6 6 7 7 7 8 8 8 8 8 8 9 9 9 9 10 11 11 12 12 12 12 12 13 13 13 13 13 13 13 13 13 13 12 12 12 12 12 11 10 9 9 9 8 8 8 8 8 7 7 6 5 5 4 4 4 5 5 6 7 9 10 11 12 13 14 15 15 16 17 18 19 19 20 20 19 19 18 17 16 15 14 13 13
8 8 9 9 8 8 8 7 7 7 7 7 8 8 8 8 8 9 9 10 11 11 11 12 13 13 12 12 13 13 13 13 13 12 12 12 12 12 11 10 9 9 9 9 8 8 8 8 7 7 6 6 5 5 5 5 5 5 6 7 8 9 11 12 12 13 14 14 15 16 16 17 17 18 19 20 20 20 19 18 17 16 15 13 13
9 9 9 8 8 7 7 7 7 7 8 8 8 8 8 8 8 8 9 9 10 10 11 11 11 12 12 13 13 13 13 13 12 12 11 11 11 11 10 9 9 8 8 8 8 8 8 7 7 6 6 5 5 5 5 5 5 6 6 7 8 10 11 12 12 13 14 14 15 16 16 16 17 17 18 19 20 20 20 19 18 17 15 14 13
8 8 8 8 7 7 7 7 7 7 7 7 7 7 7 7 7 8 8 9 9 9 10 10 11 11 12 13 13 12 12 12 11 11 11 11 10 10 9 9 8 8 8 7 7 7 7 7 6 6 6 6 6 6 6 6 6 7 7 8 9 10 11 12 12 13 14 14 14 15 16 16 16 16 17 18 19 19 20 19 19 18 16 15 14
8 8 8 8 7 7 7 7 7 6 6 6 6 6 6 6 7 7 8 8 8 9 9 10 10 11 11 12 11 11 11 11 10 10 10 10 9 9 8 8 7 7 7 7 7 7 6 6 6 6 6 6 6 7 7 7 8 8 8 9 10 10 11 12 13 13 14 14 14 15 15 16 16 16 16 17 18 19 19 19 19 18 17 16 15
Wind_Direction
224 224 225 227 230 234 235 235 236 238 239 239 242 242 241 240 237 235 235 236 238 240 240 242 247 253 255 255 256 258 261 264 266 267 269 272 273 274 275 276 275 275 275 275 275 277 277 278 280 282 283 283 282 281 279 279 280 279 279 277 272 267 266 265 263 263 268 271 272 274 275 276 278 280 279 280 280 280 280 280 280 281 281 280 280
227 228 229 230 232 234 235 234 234 236 237 236 236 237 238 239 238 237 237 238 239 241 242 242 246 250 252 253 254 255 260 263 266 270 273 274 274 273 273 273 273 273 273 272 271 273 273 274 275 277 279 279 278 278 278 278 279 279 279 277 275 272 270 269 269 269 271 273 274 276 277 278 279 281 282 282 282 282 282 283 283 283 284 283 282
233 234 236 236 236 236 236 235 234 236 238 236 235 237 238 238 238 239 240 241 242 243 244 245 247 250 251 253 254 257 261 264 267 271 274 274 274 273 271 271 272 272 273 272 270 270 271 272 273 274 275 275 275 276 277 278 278 279 279 279 277 275 275 274 276 277 276 277 277 277 278 279 280 281 282 282 282 283 283 283 283 284 284 285 284
239 239 239 238 238 238 239 238 236 238 239 237 235 237 238 238 239 240 242 244 245 245 246 248 250 251 253 255 257 259 260 262 267 272 275 275 274 271 269 269 270 271 272 272 270 269 270 270 271 272 272 272 272 274 275 275 277 277 278 279 278 277 278 280 282 283 282 281 280 280 281 281 281 282 283 282 283 283 283 283 283 284 284 285 284
243 241 240 239 239 241 243 242 240 241 240 238 237 238 238 238 240 242 244 247 248 249 249 250 252 254 255 256 257 259 260 261 266 271 275 275 272 270 269 268 268 269 270 269 269 269 270 270 270 271 271 271 270 271 271 272 273 274 275 275 275 275 277 279 282 284 283 282 281 281 282 282 282 284 284 284 283 283 284 283 283 284 285 284 284
245 242 240 239 239 242 245 245 244 243 242 240 240 240 239 240 242 246 249 251 253 254 254 254 255 255 256 256 257 259 260 262 266 270 273 272 269 267 268 268 268 270 270 270 270 270 270 269 270 270 269 269 270 269 270 271 272 273 272 272 273 273 275 276 278 280 281 281 281 281 281 281 282 283 285 286 285 285 285 284 282 283 284 284 284
247 245 242 240 241 244 246 247 248 246 244 244 243 242 241 242 244 248 252 254 255 257 258 258 258 258 258 259 260 260 259 261 265 268 269 269 267 266 266 267 269 271 271 271 271 271 270 270 270 269 268 268 268 269 269 270 271 271 270 270 270 271 273 275 276 277 277 278 279 279 280 281 282 283 285 286 286 286 287 287 284 284 284 284 284
248 246 243 242 244 247 249 251 251 247 244 244 243 243 243 245 247 249 252 255 257 258 259 260 260 260 261 262 261 259 257 259 263 265 266 267 267 265 265 267 269 271 270 269 269 269 270 271 270 270 270 269 269 269 270 270 271 270 269 269 269 269 271 274 275 275 275 275 275 276 277 279 281 282 284 285 285 286 288 288 287 286 285 285 283
247 246 245 246 249 250 251 252 252 249 246 245 244 244 245 246 248 250 253 256 259 260 261 261 260 259 259 259 258 258 258 260 263 264 265 266 266 265 267 269 271 271 270 270 269 269 270 271 271 272 272 272 271 270 271 270 270 270 270 270 269 269 271 273 274 274 274 274 275 276 276 277 279 281 282 283 284 285 286 287 287 287 286 285 284
249 248 249 251 252 253 254 254 254 253 251 249 248 247 247 247 249 252 254 257 259 260 261 260 259 256 255 256 258 259 261 262 264 266 266 267 267 269 270 271 272 272 271 271 271 271 272 272 272 272 274 274 273 272 271 270 269 269 270 270 270 271 271 272 273 274 275 276 276 277 277 278 279 281 282 283 284 284 285 285 286 286 285 285 284
255 253 253 253 254 255 255 256 256 256 255 254 252 251 251 251 251 252 254 256 257 257 257 256 255 254 254 256 258 259 260 262 265 267 268 268 269 271 272 273 273 273 272 272 272 273 273 273 272 273 273 274 274 273 271 269 268 269 269 269 270 271 272 272 273 274 276 276 277 277 278 279 280 282 283 283 284 284 284 284 284 284 284 284 284
258 257 257 256 256 256 256 256 256 256 256 256 255 255 254 252 251 252 252 253 253 252 253 254 255 255 255 256 258 259 260 264 266 268 269 271 271 272 273 273 274 274 273 273 273 274 275 274 274 274 274 274 274 273 272 271 269 269 269 269 270 271 272 272 273 274 274 275 276 277 278 279 281 281 282 284 284 284 284 283 283 284 284 283 283
259 259 258 258 257 257 257 256 256 257 256 256 256 255 254 253 252 252 252 251 250 250 251 253 255 256 257 258 259 261 262 265 267 269 271 272 273 274 274 274 274 274 274 274 274 274 275 275 275 276 276 275 275 275 274 273 272 271 270 269 269 270 271 273 274 274 274 274 275 276 277 279 280 280 282 283 284 284 284 284 283 283 283 283 283
261 260 259 259 259 259 258 258 257 257 256 255 255 254 254 254 253 253 251 250 249 250 252 254 256 257 259 261 262 264 265 267 269 270 271 273 274 275 275 276 276 275 275 275 275 274 275 275 276 277 277 277 277 276 276 275 274 272 271 270 269 270 272 273 274 275 275 276 276 277 278 279 280 280 281 282 283 283 283 283 283 283 282 282 282
261 261 261 261 261 261 259 258 258 257 256 256 255 255 254 254 253 253 252 252 253 254 255 256 257 259 260 262 264 266 268 269 270 271 272 273 274 275 276 276 276 276 275 275 275 274 274 275 276 277 277 278 278 277 276 276 274 273 271 271 271 272 273 275 275 276 276 277 278 279 280 280 281 281 282 282 282 282 282 282 282 282 282 282 282
261 261 262 263 262 262 261 260 259 258 257 257 256 256 255 254 254 254 254 254 255 256 257 258 259 260 262 264 266 268 269 271 272 272 273 273 274 275 276 276 276 276 275 275 275 275 275 275 276 277 277 278 278 278 277 276 274 273 272 273 273 274 275 276 277 278 278 279 279 280 280 281 282 282 283 283 283 283 283 282 282 282 282 282 282
261 261 263 263 262 261 262 262 261 259 258 257 257 256 256 255 255 254 254 255 256 257 258 260 262 263 264 266 268 269 270 272 273 274 274 274 275 276 276 276 276 276 275 275 275 275 275 276 276 276 277 278 278 278 277 275 274 274 274 274 274 275 275 276 277 278 279 280 280 281 281 282 282 283 283 283 283 284 284 283 283 283 283 283 283
263 263 263 263 262 262 262 262 262 260 259 258 257 255 255 254 254 254 255 256 257 258 260 262 264 265 266 268 269 269 270 272 275 276 275 275 276 276 276 276 276 276 276 276 276 276 277 278 278 278 278 279 279 278 277 276 275 274 274 274 275 275 276 277 278 279 279 280 281 281 282 282 283 283 283 283 283 284 284 284 284 284 284 284 283
264 264 264 264 264 264 263 262 261 260 258 257 255 254 254 254 254 255 256 257 258 260 262 263 264 266 267 268 269 269 271 272 275 277 277 276 276 277 276 276 276 276 276 276 276 276 277 279 280 280 279 280 280 279 278 277 276 275 275 275 275 276 276 277 278 279 280 281 282 282 282 283 283 284 284 284 284 284 284 284 284 284 284 284 283
266 266 266 265 264 262 261 260 260 258 256 255 254 253 253 254 255 256 257 258 259 261 262 263 265 266 268 268 268 269 270 272 274 276 277 277 277 277 277 276 276 276 276 276 276 277 277 279 280 280 280 280 280 279 279 278 277 276 276 276 276 277 277 278 279 280 281 281 282 283 283 283 284 284 284 284 284 284 284 284 284 284 284 283 283
266 265 265 263 262 261 260 260 259 258 257 256 255 254 254 254 256 257 259 259 260 261 262 264 264 265 267 268 269 270 271 272 273 275 276 276 276 276 276 276 276 276 276 276 276 277 277 278 279 280 280 280 280 279 279 279 278 277 277 277 277 277 278 278 279 280 281 282 282 283 283 284 284 285 285 285 285 285 285 284 284 284 283 283 283
266 265 264 263 262 261 260 260 260 260 259 257 256 256 256 257 258 259 260 260 260 261 262 263 265 266 268 270 271 272 272 273 274 275 275 275 275 275 275 275 275 276 277 276 276 276 276 277 278 279 279 280 280 280 280 280 279 279 278 278 279 279 279 280 280 281 282 283 283 284 284 285 285 286 286 286 285 285 285 285 284 284 283 283 283
266 265 264 263 262 261 260 259 258 259 259 258 257 257 257 257 257 257 257 258 259 261 263 265 266 268 269 270 271 272 273 273 274 274 275 274 275 275 275 275 275 276 276 276 275 275 275 276 277 278 279 279 280 281 281 280 280 280 280 280 281 281 281 282 282 283 283 284 284 285 285 285 286 286 286 286 286 286 286 286 285 285 285 284 284
267 266 265 264 263 262 261 259 258 257 258 257 257 257 256 256 256 256 256 257 258 260 263 265 266 267 268 269 270 271 272 273 274 275 274 274 274 274 275 274 274 275 276 275 274 274 274 275 276 277 278 279 281 281 282 281 281 281 281 282 283 283 283 283 283 284 284 285 285 285 286 286 286 286 287 287 287 287 287 287 287 286 286 286 285
267 266 266 265 264 263 262 260 259 258 257 256 256 256 256 256 256 256 256 257 258 260 262 264 266 267 268 269 269 270 271 273 273 274 274 273 273 273 273 273 273 274 275 274 274 274 275 275 276 277 279 280 281 282 282 282 282 282 283 283 283 284 284 284 284 284 285 285 285 286 286 287 287 288 288 289 289 289 289 288 288 288 287 287 287
266 266 266 265 265 264 263 262 260 259 257 256 256 256 255 256 256 257 257 257 258 260 262 264 265 266 267 268 268 270 271 272 273 273 273 272 272 272 271 271 272 273 274 273 273 274 274 275 276 278 279 281 282 283 283 283 283 284 284 285 285 284 284 284 284 285 286 286 287 288 288 289 289 290 290 290 290 290 290 290 289 289 289 289 289
265 265 265 264 264 263 263 262 260 259 258 257 256 256 256 256 256 257 257 258 259 261 263 264 265 265 266 267 268 269 270 271 272 272 271 271 271 271 270 270 270 271 271 272 272 272 273 275 276 277 279 281 282 283 283 284 284 285 285 285 285 285 285 286 286 287 288 289 289 290 290 290 291 291 291 292 292 292 292 292 292 292 292 292 291
265 264 264 263 263 262 262 261 260 259 258 257 257 257 257 257 257 257 258 259 260 261 262 263 264 265 266 267 268 268 269 270 270 270 269 269 270 269 269 268 268 268 269 269 270 271 272 274 275 277 279 280 282 283 284 285 285 285 285 285 285 286 287 287 288 289 290 291 291 291 291 292 293 294 295 295 295 295 295 295 294 294 294 293 292
265 264 263 263 262 262 261 261 260 259 258 257 257 257 257 258 258 258 259 260 261 261 262 263 264 264 265 266 267 267 268 269 269 269 268 268 268 268 267 266 266 266 267 267 268 270 272 274 275 276 278 279 281 282 284 284 284 285 285 285 285 287 289 290 291 292 292 292 293 294 294 295 296 297 297 297 297 297 297 297 297 296 296 295 294
265 264 263 262 262 261 261 260 259 258 258 257 258 258 258 257 257 258 259 260 260 262 263 264 264 265 265 266 266 267 268 269 268 267 266 266 266 265 264 264 264 265 265 266 268 269 271 273 274 275 276 278 280 281 282 283 284 284 285 286 287 288 290 292 293 294 295 296 297 297 298 298 299 299 299 298 299 299 300 300 300 299 298 297 296
264 264 263 262 261 261 260 260 259 258 258 258 258 257 257 257 257 258 259 260 261 262 263 263 264 265 265 266 266 267 267 267 266 264 264 264 263 262 261 261 262 263 264 265 267 268 270 271 272 273 275 277 278 279 281 282 283 284 286 287 289 290 291 293 295 296 298 299 300 300 301 300 300 300 299 300 301 302 303 303 303 302 301 300 299
263 263 262 262 261 260 260 259 258 257 257 257 256 257 257 257 257 258 259 260 261 262 262 263 263 264 264 265 266 266 266 264 263 262 261 260 259 259 258 259 260 261 261 263 265 266 268 268 269 271 273 274 276 277 279 281 283 285 287 289 290 292 293 295 297 298 299 301 302 303 303 303 302 302 302 302 303 304 304 304 305 304 304 303 302
263 262 261 261 260 259 258 258 257 257 256 256 256 256 257 257 258 258 259 260 261 261 262 262 263 263 264 264 264 264 264 261 259 258 258 257 256 255 256 257 257 258 258 260 262 264 265 266 267 269 270 271 273 275 277 280 283 286 288 290 293 294 295 297 298 300 302 303 305 306 306 306 305 305 305 305 304 304 304 305 305 305 304 303 303
263 261 260 260 259 258 258 258 258 258 257 257 257 257 257 257 258 259 259 260 260 261 261 261 262 263 263 262 261 261 260 257 256 254 253 253 252 252 252 253 253 254 255 257 258 260 262 263 264 265 266 267 269 272 275 279 283 286 290 292 294 296 297 299 302 304 306 307 308 309 309 309 308 308 308 307 306 306 307 307 307 306 305 304 303
262 259 258 258 258 258 259 259 259 259 259 258 258 258 258 258 258 259 259 260 260 261 261 261 261 262 262 260 259 257 255 253 251 250 249 248 247 246 246 247 249 250 252 253 254 256 258 259 260 260 260 262 266 270 274 278 283 287 291 294 296 299 302 305 306 309 311 313 314 313 313 312 311 309 309 310 310 311 311 311 310 309 308 307 307
258 257 256 257 258 259 260 260 260 260 260 260 260 259 259 259 259 259 259 259 259 259 259 259 259 259 259 258 255 253 250 248 246 245 243 241 240 240 241 243 245 248 250 251 251 252 254 256 255 255 256 259 263 267 272 277 281 286 290 294 299 304 309 311 313 315 318 319 319 317 315 314 312 310 310 311 313 314 315 314 314 314 314 313 312
255 254 255 257 258 259 260 261 262 262 262 261 261 260 260 259 259 259 258 257 257 257 256 256 255 255 254 253 250 246 244 242 240 238 236 234 234 236 239 241 243 245 247 247 247 248 249 250 250 250 252 255 259 263 268 273 277 282 290 298 305 310 314 317 321 324 325 325 324 321 319 317 314 312 312 312 314 316 317 319 320 320 318 316 315
250 251 254 257 260 261 263 264 265 264 264 263 262 261 261 260 259 258 257 256 254 253 252 251 249 248 247 245 242 239 236 235 233 231 230 230 232 235 237 238 239 241 242 242 242 242 243 244 243 243 245 248 252 258 262 267 272 280 292 303 309 314 319 324 327 330 331 332 331 328 325 321 318 315 314 314 315 317 319 321 324 324 322 321 321
247 251 257 261 264 266 267 268 268 267 266 265 264 262 261 259 257 255 254 252 249 247 245 243 243 242 241 238 234 231 229 227 225 225 226 227 228 230 231 232 234 236 237 235 233 234 235 234 233 232 234 239 245 251 256 263 272 283 296 305 312 319 326 330 332 334 336 338 339 337 333 327 322 318 316 316 316 317 318 321 324 326 325 324 323
248 254 261 267 269 271 273 273 271 270 268 265 263 260 257 255 253 250 248 244 241 239 238 238 238 237 232 227 224 221 219 217 216 216 218 220 221 223 226 229 231 230 227 224 224 225 224 221 219 220 224 231 239 246 254 265 276 287 298 308 317 325 331 334 336 337 340 342 344 344 341 335 327 322 319 317 317 317 318 320 324 327 327 325 324
250 259 267 273 276 279 281 279 277 275 271 265 259 254 250 247 245 242 238 234 233 233 232 232 229 223 216 212 211 210 208 206 206 208 212 215 219 222 224 223 221 219 216 215 215 213 210 208 209 214 220 228 237 246 255 267 279 290 302 313 322 328 333 336 338 340 342 346 348 349 347 343 336 329 323 320 319 319 318 319 322 327 329 328 327
251 262 273 283 290 294 295 294 292 288 279 268 256 245 237 234 232 229 226 223 223 221 218 213 207 202 198 197 198 199 198 199 202 205 208 211 213 213 211 210 209 209 208 206 204 203 202 203 208 213 221 230 239 247 255 265 279 293 305 315 324 330 335 337 339 341 344 348 351 352 352 350 346 339 332 327 324 323 321 319 321 326 329 330 330
232 242 273 310 334 347 353 357 357 351 344 326 226 210 205 205 206 205 204 202 198 193 189 186 185 186 187 188 189 191 193 196 199 200 200 199 199 199 199 200 201 201 199 198 198 199 201 205 210 216 224 231 237 243 250 260 277 293 305 316 325 331 335 338 340 342 345 348 352 354 354 354 352 348 343 337 332 328 324 322 322 325 328 330 332
145 128 98 59 56 63 66 64 63 68 75 80 92 115 136 150 158 163 167 169 167 166 167 170 172 174 176 179 183 186 188 191 192 191 191 191 192 192 193 194 194 194 194 195 197 199 203 207 212 218 223 226 229 235 243 256 274 292 307 318 325 330 335 338 341 342 345 347 351 354 355 356 356 354 351 346 341 335 330 326 323 324 327 330 333
111 100 92 89 86 83 80 78 78 81 84 88 94 102 111 120 129 137 145 151 152 153 156 161 165 168 170 172 175 177 180 182 183 184 186 187 186 186 187 189 190 191 193 194 197 200 204 207 212 216 218 218 221 229 241 254 272 293 310 320 326 330 334 337 339 341 343 345 349 352 354 356 356 356 355 353 349 344 339 333 328 326 327 329 333
89 86 94 103 104 99 93 89 88 88 89 92 98 104 109 116 123 130 138 146 150 151 153 158 163 167 169 169 170 173 175 176 177 178 179 180 180 181 184 186 187 189 191 194 197 200 202 206 210 213 212 212 218 231 246 258 274 293 309 320 325 330 333 335 337 339 340 343 346 350 352 354 356 356 356 356 354 351 347 342 337 332 330 331 334
82 86 96 102 102 100 98 96 97 96 95 96 101 106 110 118 128 135 140 146 151 154 157 160 163 165 166 167 169 170 170 169 169 170 172 175 178 180 182 184 185 187 189 191 193 195 199 204 207 208 208 212 223 238 251 263 277 292 307 317 325 330 333 333 334 337 338 340 343 346 349 351 354 355 356 357 357 355 352 349 345 341 336 335 336
85 90 97 99 97 95 93 93 94 95 95 98 103 106 109 115 124 133 141 146 149 152 155 158 160 161 163 164 164 164 163 163 165 167 171 174 177 178 180 182 184 185 186 188 190 194 199 202 204 207 211 219 231 244 256 269 281 292 304 315 323 329 331 331 332 334 336 337 339 343 346 348 351 353 354 356 357 358 356 353 350 347 344 341 339
90 93 95 95 94 92 90 90 91 92 91 93 97 101 105 111 116 123 131 138 142 145 148 151 153 157 158 158 158 159 161 163 165 167 170 172 174 175 177 179 182 184 188 191 195 199 202 205 208 214 221 230 240 250 261 273 284 293 303 312 320 326 330 331 332 333 334 335 337 339 343 346 348 350 352 354 356 358 358 356 354 352 350 348 344
91 91 92 92 92 91 88 89 93 93 91 91 93 96 100 108 115 121 126 131 136 142 145 147 149 152 155 156 157 160 163 165 166 168 170 171 173 176 178 181 185 190 195 199 202 204 207 212 218 226 233 240 248 257 264 274 284 292 300 307 314 321 327 331 332 332 333 334 335 337 340 343 346 348 350 352 355 356 358 357 356 354 353 352 350
87 86 85 85 87 89 89 89 90 90 90 92 96 100 103 110 118 126 131 133 136 140 144 147 149 153 157 160 162 163 165 166 168 170 172 175 178 182 185 188 192 197 202 205 207 210 215 221 229 236 241 248 255 262 268 275 283 290 296 303 308 315 321 327 330 331 331 331 332 334 337 340 343 345 348 351 353 354 356 357 357 356 355 354 353